ISS (ZARYA) (25544 NORAD) Tracking and Keplerian Element Data

This shows tracking and keplerian element data for the satellite.

Feedback or suggestion? Click here.




ElementValue
Catalog25544
NameISS (ZARYA)
Epoch Orbit31528
Epoch Day340.39932169
Epoch Year2021
RAAN211.2046
Inclination51.6435
Eccentricity0.0003988
Argument of Perigee277.6071
Mean Anonmoly254.8235
Mean Motion15.48946544
Decay Rate4.577E-05
L11 25544U 98067A 21340.39932169 .00004577 00000+0 91351-4 0 9997
L22 25544 51.6435 211.2046 0003988 277.6071 254.8235 15.48946544315288

Live tracking and technical data element details for ISS (ZARYA) (NORAD 25544). ISS (ZARYA) can be tracked NOW for your location showing map with azimuth and elevation plus other details from your city location.

Track the satellite on the map from your city or location and see movement details for azimuth, elevation, latitude, longitude, range, height, and movement on the map or in text.







IsCatalogInMostPopularTable: catalog: 25544, numindb: 100641
Update: records affected: 3



GetName: 25544 ISS (ZARYA)

Hit Count: updated at: Wed, 08 Dec 2021 15:50:42 GMT